Погода в Пензе

Россия / Пензенская область     53°11′42″N   45°01′05″E
темп.,
°C
ветер,
м/с
пор.,
м/с
влажн.,
%
обл.,
%
осадки,
мм/ч
давл.,
гПа
погр.,
м
18 апреля, вс
вс1800:00+10зюз5886100 0.5 1019498
03:00+9ссз1289100 3.3 1019174
06:00+9ссв2593100 4.2 1018305
09:00+9св2485100 5.2 1019325
12:00+8всв3580100 0.5 1020373
15:00+8св2684100 4.6 1020272
18:00+8св2590100 0.3 1020224
21:00+8ссв3989100 0.5 1020372
19 апреля, пн
пн1900:00+8св41177100 0.1 1019456
03:00+7всв41077100 0.1 1019534
06:00+6всв41082100 0.3 1020683
09:00+6всв41180100 5.0 1021742
12:00+6всв41079100 1.2 1021915
15:00+6всв4976100 1.4 1021970
18:00+7в41182100 0.0 1021882
21:00+7в51175100 0.0 1022867
20 апреля, вт
вт2000:00+5в51281100 0.0 1023714
03:00+4в51284100 0.0 1023675
06:00+4вюв51288100 0.0 1024687
09:00+6вюв6127094 0.0 1024857
12:00+8вюв7115351 0.0 10231018
15:00+9вюв71352100 0.0 10221055
18:00+9вюв71454100 0.0 10201143
21:00+7вюв81755100 0.0 10191226
21 апреля, ср
ср2100:00+6вюв81963100 0.6 10181170
03:00+5юв92071100 1.1 10161027
06:00+4юв81986100 3.1 1016956
09:00+4юв81888100 3.4 1016830
12:00+4юв81790100 0.5 1017808
15:00+5ююв71590100 0.5 1017772
18:00+5ююв61492100 0.0 1018592
21:00+5ююв51294100 0.2 1020568
22 апреля, чт
чт2200:00+5ююв4996100 0.0 1021339
03:00+5юв2798100 0.1 1022231
06:00+5ююв2597100 0.1 1023197
09:00+8ююз258196 0.1 1024387
12:00+8юв24866 0.6 1024244
15:00+12з2358100 0.8 1024884
18:00+11ссз126075 0.0 1025164
21:00+9всв1170100 0.0 102520